Powrót do katalogu

SKY MUSTER 2

AktywnyŁącznośćGEO
NORAD 41794·PAYLOAD·🇦🇺 Australia

Wystrzelony Oct 5, 2016 z Guiana Space Centre

Loading…

TLE

ŚwieżeSource: Space-Track

Epoka: Sep 14, 2026, 11:38 UTC

1 41794U 16060B   26257.48517015 -.00000252  00000-0  00000-0 0  9991
2 41794   0.0192 235.5514 0001544 284.3239 153.0595  1.00273230 36419

Śledź SKY MUSTER 2 w czasie rzeczywistym z AllMySat

Download on the App Store